Meadville, PA

11:16 AM EST on January 16, 2017 (GMT -0500)
Port Meadville

Weather History for KGKJ - March, 2013

Change the Weather History Date:

Thursday, March 28, 2013

  Actual Average Record
Temperature  
Mean Temperature 33 °F -  
Max Temperature 36 °F 50 °F 80 °F (1989)
Min Temperature 30 °F 26 °F 3 °F (1982)
Degree Days  
Heating Degree Days 32    
Moisture  
Dew Point 29 °F    
Average Humidity 86    
Maximum Humidity 100    
Minimum Humidity 73    
Precipitation  
Precipitation 0.14 in - - ()
Sea Level Pressure  
Sea Level Pressure 30.17 in    
Wind  
Wind Speed 6 mph (WNW)    
Max Wind Speed 10 mph    
Max Gust Speed 20 mph    
Visibility 5 miles    
Events Fog , Snow    
Averages and records for this station are not official NWS values.
T = Trace of Precipitation, MM = Missing Value Source: NWS Daily Summary

Daily Weather History Graph

Daily Weather History Graph

Search for Another Location

Airport or City:

Trip Planner

Search our weather history database for the weather conditions in past years. The results will help you decide how hot, cold, wet, or windy it might be!

Date:

Astronomy

Mar. 28, 2013 Rise Set
Actual Time 7:10 AM EDT 7:42 PM EDT
Civil Twilight 6:42 AM EDT 8:10 PM EDT
Nautical Twilight 6:09 AM EDT 8:42 PM EDT
Astronomical Twilight 5:35 AM EDT 9:16 PM EDT
Moon 9:34 PM EDT (3/28) 7:35 AM EDT (3/28)
Length of Visible Light 13h 27m
Length of Day
12h 31m
Full, 98% of the Moon is Illuminated
Mar 28
Full
Apr 3
Last Quarter
Apr 10
New
Apr 18
First Quarter
Apr 25
Full

Hourly Weather History & Observations

Time (EDT) Temp. Windchill Dew Point Humidity Pressure Visibility Wind Dir Wind Speed Gust Speed Precip Events Conditions
12:19 AM 32.0 °F 25.6 °F 30.2 °F 93% 30.08 in 1.0 mi West 6.9 mph - 0.00 in Snow Light Snow
12:53 AM 32.0 °F 26.4 °F 30.9 °F 96% 30.12 in 1.2 mi West 5.8 mph - 0.00 in Snow Light Snow
1:09 AM 32.0 °F 25.6 °F 30.2 °F 93% 30.08 in 2.0 mi West 6.9 mph - 0.00 in Snow Light Snow
1:37 AM 32.0 °F 24.8 °F 30.2 °F 93% 30.08 in 1.2 mi West 8.1 mph - 0.00 in Snow Light Snow
1:53 AM 32.0 °F 24.8 °F 30.9 °F 96% 30.12 in 1.8 mi WNW 8.1 mph - 0.00 in Snow Light Snow
2:22 AM 32.0 °F 24.8 °F 30.2 °F 93% 30.08 in 2.5 mi West 8.1 mph - 0.00 in Snow Light Snow
2:29 AM 32.0 °F 23.6 °F 30.2 °F 93% 30.08 in 2.0 mi WNW 10.4 mph 19.6 mph 0.00 in Snow Light Snow
2:42 AM 32.0 °F 25.6 °F 30.2 °F 93% 30.08 in 1.5 mi WNW 6.9 mph - 0.00 in Snow Light Snow
2:53 AM 32.0 °F 27.5 °F 30.0 °F 92% 30.12 in 1.2 mi WNW 4.6 mph 18.4 mph 0.00 in Snow Light Snow
3:53 AM 30.9 °F 23.5 °F 28.9 °F 92% 30.13 in 2.5 mi NW 8.1 mph - 0.00 in Snow Light Snow
4:25 AM 30.2 °F 25.4 °F 28.4 °F 93% 30.09 in 1.8 mi NW 4.6 mph - 0.00 in Snow Light Snow
4:53 AM 30.9 °F 25.2 °F 28.9 °F 92% 30.13 in 1.5 mi WNW 5.8 mph - 0.00 in Snow Light Snow
5:53 AM 30.9 °F 25.2 °F 28.9 °F 92% 30.14 in 1.8 mi West 5.8 mph - 0.00 in Snow Light Snow
6:43 AM 30.2 °F 24.3 °F 28.4 °F 93% 30.10 in 0.8 mi West 5.8 mph - 0.00 in Snow Light Snow
6:53 AM 30.9 °F 25.2 °F 28.9 °F 92% 30.15 in 1.0 mi West 5.8 mph - 0.00 in Snow Light Snow
7:26 AM 30.2 °F 23.4 °F 28.4 °F 93% 30.12 in 2.5 mi WNW 6.9 mph - 0.00 in Snow Light Snow
7:36 AM 30.2 °F 23.4 °F 28.4 °F 93% 30.12 in 1.8 mi West 6.9 mph - 0.00 in Snow Light Snow
7:51 AM 30.2 °F 24.3 °F 28.4 °F 93% 30.12 in 2.5 mi WNW 5.8 mph - 0.00 in Snow Light Snow
7:53 AM 30.9 °F 26.2 °F 28.9 °F 92% 30.17 in 2.5 mi WNW 4.6 mph - 0.00 in Snow Light Snow
8:00 AM 30.2 °F 25.4 °F 30.2 °F 100% 30.13 in 3.0 mi West 4.6 mph - 0.00 in Snow Light Snow
8:40 AM 32.0 °F 24.8 °F 28.4 °F 87% 30.13 in 2.0 mi West 8.1 mph - 0.00 in Snow Light Snow
8:53 AM 32.0 °F 24.2 °F 28.9 °F 88% 30.18 in 1.2 mi West 9.2 mph - 0.00 in Snow Light Snow
9:25 AM 32.0 °F 25.6 °F 30.2 °F 93% 30.14 in 0.5 mi West 6.9 mph - 0.00 in Fog , Snow Light Snow
9:43 AM 32.0 °F 24.8 °F 28.4 °F 87% 30.14 in 1.0 mi WNW 8.1 mph - 0.00 in Snow Light Snow
9:53 AM 32.0 °F 24.8 °F 28.9 °F 88% 30.19 in 1.0 mi WNW 8.1 mph - 0.00 in Snow Light Snow
10:07 AM 32.0 °F 24.2 °F 30.2 °F 93% 30.15 in 0.8 mi WNW 9.2 mph - 0.00 in Snow Light Snow
10:53 AM 32.0 °F 26.4 °F 30.0 °F 92% 30.21 in 0.5 mi WNW 5.8 mph - 0.01 in Fog , Snow Light Snow
11:38 AM 33.8 °F 28.6 °F 30.2 °F 87% 30.18 in 1.2 mi WNW 5.8 mph - 0.04 in Snow Light Snow
11:53 AM 33.1 °F 25.5 °F 30.0 °F 89% 30.22 in 3.0 mi West 9.2 mph - 0.05 in   Overcast
12:53 PM 33.1 °F 26.1 °F 30.0 °F 89% 30.22 in 8.0 mi West 8.1 mph - 0.06 in   Overcast
1:53 PM 33.1 °F 25.5 °F 28.9 °F 85% 30.23 in 8.0 mi West 9.2 mph - 0.02 in   Overcast
2:51 PM 35.6 °F 29.2 °F 28.4 °F 75% 30.19 in 10.0 mi West 8.1 mph - N/A   Overcast
2:53 PM 35.1 °F 27.4 °F 28.9 °F 78% 30.23 in 10.0 mi West 10.4 mph - N/A   Overcast
3:14 PM 35.6 °F 29.9 °F 28.4 °F 75% 30.18 in 10.0 mi West 6.9 mph - N/A   Overcast
3:53 PM 36.0 °F 30.3 °F 28.0 °F 73% 30.22 in 10.0 mi WNW 6.9 mph - N/A   Overcast
4:53 PM 36.0 °F 31.1 °F 28.0 °F 73% 30.23 in 10.0 mi WNW 5.8 mph - N/A   Overcast
5:53 PM 36.0 °F 31.1 °F 28.0 °F 73% 30.24 in 10.0 mi WNW 5.8 mph - N/A   Overcast
6:53 PM 36.0 °F 32.1 °F 28.9 °F 76% 30.25 in 10.0 mi WNW 4.6 mph - N/A   Overcast
7:53 PM 36.0 °F 33.3 °F 28.9 °F 76% 30.26 in 10.0 mi West 3.5 mph - N/A   Overcast
8:02 PM 35.6 °F - 28.4 °F 75% 30.21 in 10.0 mi Calm Calm - N/A   Overcast
8:13 PM 35.6 °F - 28.4 °F 75% 30.22 in 10.0 mi Calm Calm - N/A   Overcast
8:23 PM 35.6 °F - 28.4 °F 75% 30.22 in 10.0 mi Calm Calm - N/A   Overcast
8:53 PM 35.1 °F - 28.9 °F 78% 30.27 in 10.0 mi Calm Calm - N/A   Overcast
9:01 PM 35.6 °F 32.8 °F 28.4 °F 75% 30.22 in 10.0 mi West 3.5 mph - N/A   Overcast
9:16 PM 35.6 °F 31.7 °F 28.4 °F 75% 30.22 in 10.0 mi WSW 4.6 mph - N/A   Overcast
9:53 PM 35.1 °F - 28.9 °F 78% 30.27 in 10.0 mi Calm Calm - N/A   Overcast
10:53 PM 35.1 °F 32.2 °F 28.9 °F 78% 30.26 in 10.0 mi SW 3.5 mph - N/A   Overcast
11:53 PM 34.0 °F 29.8 °F 28.0 °F 79% 30.26 in 10.0 mi West 4.6 mph - N/A   Overcast